Regional Weather Roundup
Issued by NWS Green Bay, WI

Home | Current Version | Previous Version | Graphics & Text | Print | Product List | Glossary Off
Versions: 1 2 3 4 5 6 7 8 9 10 11 12 13 14 15 16 17 18 19 20 21 22 23 24 25 26 27 28 29 30 31 32 33 34 35 36 37 38 39 40 41 42 43 44 45 46 47 48 49 50

000
ASUS43 KGRB 281459
RWRGRB

NORTH-CENTRAL AND NORTHEAST WISCONSIN REGIONAL WEATHER ROUNDUP
NATIONAL WEATHER SERVICE GREEN BAY WI
900 AM CST WED JAN 28 2015

WIZ005-009-010>012-018-019-281600-
NORTH CENTRAL WISCONSIN

CITY           SKY/WX    TMP DP  RH WIND       PRES   REMARKS
IRONWOOD       CLOUDY    25  23  93 S8        29.99F
MANITOWISH WTR NOT AVBL
ARBOR VITAE    NOT AVBL
EAGLE RIVER    NOT AVBL
LAND O LAKES   NOT AVBL
RHINELANDER    CLOUDY    22  20  92 S10       30.08F FOG
PHILLIPS       NOT AVBL
ANTIGO         NOT AVBL
TOMAHAWK       NOT AVBL
MERRILL        NOT AVBL
$$

WIZ013-073-281600-
NORTHEAST WISCONSIN

CITY           SKY/WX    TMP DP  RH WIND       PRES   REMARKS
IRON MOUNTAIN  CLOUDY    22  17  81 S9        30.15R
MARINETTE      MOSUNNY   25  18  74 SW10      30.22S
$$

WIZ017-030-035>037-045-281600-
CENTRAL WISCONSIN

CITY           SKY/WX    TMP DP  RH WIND       PRES   REMARKS
MEDFORD        NOT AVBL
WAUSAU         CLOUDY    24  21  88 S14       30.11F FOG
MOSINEE        CLOUDY    25  23  93 SE10G17   30.13F
MARSHFIELD     CLOUDY    25  22  88 SE14G22   30.09F FOG
WISC RAPIDS    CLOUDY    24  20  84 S10G21    30.16S
STEVENS POINT  NOT AVBL
WAUPACA        NOT AVBL
SHAWANO        NOT AVBL
CLINTONVILLE   NOT AVBL
$$

WIZ038-039-048-051-281600-
FOX VALLEY

CITY           SKY/WX    TMP DP  RH WIND       PRES   REMARKS
NWS GREEN BAY  CLOUDY    23  18  81 S7        30.23S
APPLETON       PTSUNNY   25  18  74 S8        30.22S
OSHKOSH        PTSUNNY   23  18  81 S9        30.21F
FOND DU LAC    PTSUNNY   24  18  77 S10       30.21F
$$

WIZ022-050-052-281600-
EAST CENTRAL WISCONSIN

CITY           SKY/WX    TMP DP  RH WIND       PRES   REMARKS
STURGEON BAY   MOSUNNY   25  18  74 S7        30.25R
MANITOWOC      NOT AVBL
SHEBOYGAN      CLOUDY    24  20  84 CALM      30.23F
$$

LMZ563-521-522-541>543-281600-
LAKESHORE

STATION/POSITION TIME  TEMP    WIND        PRES    VSBY  WAVE
                       AIR SEA DIR/SP/G                  HT/PER
                 (UTC) (F)     (DEG/KT/KT) (MB)    (MI)  (FT/S)
SHEBOYGAN LKSHOR 1400   29     200/ 10/ 12 1025.3F
KEWAUNEE LKSHORE 1400   27     210/  6/  9 1022.9F
TWO RIVERS CG    1400   28 32              1023.9      6   0
NORTHPORT PIER   1400   24     150/  1/  3 1023.4F
CHAMBERS ISLAND  1400   23     170/  5/  8 1023.7F
MENOMINEE LKSHOR 1400   20     190/  6     1024.1S
$$



USA.gov is the U.S. government's official web portal to all federal, state and local government web resources and services.